This is the latest recevied weather packets stored in our database for station/object SQ4IXR-4. If no packets are shown the sender has not sent any weather packets the latest 10 day(s).
| Time | Temp. | Humidity | Pressure | Rain* | Wind** | Luminosity | Snow |
|---|---|---|---|---|---|---|---|
| 1777541223 | 24.44° C | 15% | 1031.9 hPa | - | - | - | - |
| 1777540399 | 25.56° C | 14% | 1032 hPa | - | - | - | - |
| 1777539579 | 27.22° C | 14% | 1031.9 hPa | - | - | - | - |
| 1777538751 | 26.11° C | 15% | 1032.1 hPa | - | - | - | - |
| 1777537929 | 27.22° C | 14% | 1032.1 hPa | - | - | - | - |
| 1777537104 | 26.11° C | 16% | 1032.5 hPa | - | - | - | - |
| 1777536282 | 25.56° C | 16% | 1032.7 hPa | - | - | - | - |
| 1777535474 | 30° C | 12% | 1032.2 hPa | - | - | - | - |
| 1777534654 | 32.78° C | 11% | 1032.1 hPa | - | - | - | - |
| 1777533831 | 35° C | 9% | 1032 hPa | - | - | - | - |
| 1777533013 | 38.89° C | 8% | 1031.6 hPa | - | - | - | - |
| 1777532170 | 30° C | 13% | 1032.3 hPa | - | - | - | - |
| 1777531349 | 28.33° C | 14% | 1032.4 hPa | - | - | - | - |
| 1777530545 | 40° C | 9% | 1031.7 hPa | - | - | - | - |
| 1777529709 | 35° C | 11% | 1031.8 hPa | - | - | - | - |
| 1777528877 | 35.56° C | 12% | 1031.8 hPa | - | - | - | - |
| 1777528035 | 28.89° C | 17% | 1032.2 hPa | - | - | - | - |
| 1777527181 | 10.56° C | 46% | 1033.4 hPa | - | - | - | - |
| 1777526352 | 7.22° C | 56% | 1033.8 hPa | - | - | - | - |
| 1777525527 | 6.11° C | 59% | 1033.8 hPa | - | - | - | - |
| 1777524702 | 5.56° C | 63% | 1034 hPa | - | - | - | - |
| 1777523878 | 4.44° C | 66% | 1034.1 hPa | - | - | - | - |
| 1777523053 | 4.44° C | 69% | 1034 hPa | - | - | - | - |
| 1777522228 | 3.33° C | 77% | 1034 hPa | - | - | - | - |
| 1777521402 | 2.22° C | 86% | 1034 hPa | - | - | - | - |
* Rain since midnight (hover to see other rain measurements)
** Current wind speed in m/s (hover to see current wind gust speed)